Content
SEND FEEDBACK

Daily
Averages
Monthly
Summary
United States of America

TOMBSTONE, ARIZONA


Home > North America > United States > Arizona
Elevation: 4392 feet     Latitude: 31 43N     Longitude: 110 04W

WEATHER
 
SELECT A DAY
Number of Records: 126,185;   Date Range: 1/3/95 - 12/17/14
 
SHARE

PRINT THIS DATA

[ ← Previous Day ]
WEATHER ALMANAC - NOVEMBER 16, 2013
[ Next Day → ]
[ °C ]   °F
Weather ElementAverageHighLow
Temperature59.7 °F68 °F (12:56 pm)54 °F (6:56 am)
Dewpoint37.7 °F43 °F (1:56 am)30 °F (12:56 pm)
Humidity45.6 %58 % (1:56 am)24 % (12:56 pm)
Barometer29.77 in29.86 in (8:56 pm)29.68 in (1:56 am)
Wind Speed12.8 mph26.5 mph (2:56 am)
Wind Gust33.4 mph (2:56 am)
Weather ElementAverage
Visibility10 mi
Wind DirectionS (181.7 °)

Weather ElementTotal
Precipitation---
Heating Degree Days4 (Base 65)
Growing Degree Days11 (Base 50)
Averaged from 23 records on November 16, 2013
WEATHER CONDITIONS BREAKOUT
WIND DIRECTION BREAKOUT
WEATHER BY HOUR - NOVEMBER 16, 2013
[ °C ]   °F
Local TimeTemperatureDewpointHumidityBarometerVisibilityWind DirectionWind SpeedGust SpeedPrecipitationEventsConditions
1:56 AM57.9 °F43.0 °F58 %29.68 in10.0 miSW (230°)12.7 mph24.2 mphScattered Clouds
2:56 AM57.9 °F41.0 °F53 %29.68 in10.0 miWSW (240°)26.5 mph33.4 mphClear
3:56 AM55.9 °F39.9 °F55 %29.69 in10.0 miWSW (250°)12.7 mph29.9 mphClear
4:56 AM57.0 °F37.0 °F47 %29.71 in10.0 miSSE (150°)8.1 mphClear
5:56 AM55.0 °F37.9 °F53 %29.74 in10.0 miCalmPartly Cloudy
6:56 AM54.0 °F37.9 °F55 %29.76 in10.0 miSSW (200°)6.9 mphScattered Clouds
7:56 AM57.0 °F39.0 °F51 %29.78 in10.0 miSouth (190°)13.8 mph20.7 mphClear
8:56 AM60.1 °F37.9 °F44 %29.80 in10.0 miSSW (200°)11.5 mph21.9 mphClear
9:56 AM62.1 °F37.9 °F41 %29.80 in10.0 miSSW (200°)18.4 mphClear
10:56 AM64.0 °F37.0 °F37 %29.79 in10.0 miSouth (170°)23.0 mph29.9 mphClear
11:56 AM66.9 °F34.0 °F30 %29.77 in10.0 miSW (220°)12.7 mph20.7 mphClear
12:56 PM68.0 °F30.0 °F24 %29.75 in10.0 miSW (220°)15.0 mph29.9 mphClear
1:56 PM66.9 °F33.1 °F28 %29.73 in10.0 miSSW (210°)17.3 mph31.1 mphClear
2:56 PM66.9 °F34.0 °F30 %29.73 in10.0 miWSW (240°)21.9 mph32.2 mphClear
3:56 PM66.0 °F36.0 °F33 %29.75 in10.0 miWSW (240°)16.1 mph25.3 mphClear
4:56 PM63.0 °F37.9 °F40 %29.76 in10.0 miSW (220°)10.4 mph27.6 mphClear
5:56 PM60.1 °F39.9 °F47 %29.78 in10.0 miWSW (240°)10.4 mphClear
6:56 PM59.0 °F39.0 °F48 %29.82 in10.0 miSW (220°)9.2 mph19.6 mphPartly Cloudy
7:56 PM55.0 °F39.9 °F57 %29.85 in10.0 miCalmClear
8:56 PM55.0 °F39.0 °F55 %29.86 in10.0 miCalmClear
9:56 PM55.0 °F39.0 °F55 %29.86 in10.0 miSSW (200°)8.1 mphClear
10:56 PM55.0 °F37.9 °F53 %29.86 in10.0 miSouth (170°)21.9 mph27.6 mphClear
11:56 PM55.0 °F39.0 °F55 %29.86 in10.0 miSouth (170°)17.3 mph25.3 mphClear
Hourly data recorded from KFHU, located miles away from Tombstone, Arizona







STORIES FROM OUR PARTNERS